Location: Agadir-Ikarkaouin
(31.1503°N, 9.0246°W)
Time: 04:03:38
(UTC+00:00)

Meteor 1-12 Rocket - Pass Details

Date: 18 September 2020
Orbit: 854 x 927 km, 81.2° (Epoch: 23 October)

Event Time Altitude Azimuth Distance (km) Brightness Sun altitude
Rises 19:44:58 0° 180° (S) 3,549 7.3 -15.2°
Reaches altitude 10° 19:47:27 10° 177° (S) 2,603 6.6 -15.7°
Maximum altitude 19:53:21 69° 95° (E) 967 4.3 -16.9°
Drops below altitude 10° 19:59:11 10° 13° (NNE) 2,574 6.7 -18.2°
Sets 20:01:38 0° 11° (NNE) 3,506 7.5 -18.7°
